QPF
0.00 0.00 0.00 0.00 0.00 0.00 0.00 0.00 0.00 0.00 0.00 0.00 0.00 0.00 0.00 0.00 0.00 0.00 0.00 0.00 0.00 0.00 0.00 0.00 0.00 0.00 0.00 0.00 0.00 0.00 0.00 0.00 0.00 0.00 0.00 0.00 0.00 0.00 0.00 0.00 0.00 0.00 0.00 0.00 0.00
0.00 0.00 0.00 0.00 0.00 0.00 0.00 0.00 0.00 0.00 0.00 0.00 0.00 0.00 0.00 0.00 0.00 0.00 0.00 0.00 0.00 0.00 0.00 0.00 0.00 0.00 0.00 0.00 0.00 0.00 0.00 0.00 0.00 0.00 0.00 0.00 0.00 0.00 0.00 0.00 0.00 0.00 0.00 0.00 0.00
0.00 0.00 0.00 0.00 0.00 0.00 0.00 0.00 0.00 0.00 0.00 0.00 0.00 0.00 0.00 0.00 0.00 0.00 0.00 0.00 0.00 0.00 0.00 0.00 0.00 0.00 0.00 0.00 0.00 0.00 0.00 0.00 0.00 0.00 0.00 0.00 0.00 0.00 0.00 0.00 0.00 0.00 0.00 0.00 0.00
0.00 0.00 0.00 0.00 0.00 0.00 0.00 0.00 0.00 0.00 0.00 0.00 0.00 0.00 0.00 0.00 0.00 0.00 0.00 0.00 0.00 0.00 0.00 0.00 0.00 0.00 0.00 0.00 0.00 0.00 0.00 0.00 0.00 0.00 0.00 0.00 0.00 0.00 0.00 0.00 0.00 0.00 0.00 0.00 0.00
0.00 0.00 0.00 0.00 0.00 0.00 0.00 0.00 0.00 0.00 0.00 0.00 0.00 0.00 0.00 0.00 0.00 0.00 0.00 0.00 0.00 0.00 0.00 0.00 0.00 0.00 0.00 0.00 0.00 0.00 0.00 0.00 0.00 0.00 0.00 0.00 0.00 0.00 0.00 0.00 0.00 0.00 0.00 0.00 0.00
0.00 0.00 0.00 0.00 0.00 0.00 0.00 0.00 0.00 0.00 0.00 0.00 0.00 0.00 0.00 0.00 0.00 0.00 0.00 0.00 0.00 0.00 0.00 0.00 0.00 0.00 0.00 0.00 0.00 0.00 0.00 0.00 0.00 0.00 0.00 0.00 0.00 0.00 0.00 0.00 0.00 0.00 0.00 0.00 0.00
0.00 0.00 0.00 0.00 0.00 0.00 0.00 0.00 0.00 0.00 0.00 0.00 0.00 0.00 0.00 0.00 0.00 0.00 0.00 0.00 0.00 0.00 0.00 0.00 0.00 0.00 0.00 0.00 0.00 0.00 0.00 0.00 0.00 0.00 0.00 0.00 0.00 0.00 0.00 0.00 0.00 0.00 0.00 0.00 0.00
0.00 0.00 0.00 0.00 0.00 0.00 0.00 0.00 0.00 0.00 0.00 0.00 0.00 0.00 0.00 0.00 0.00 0.00 0.00 0.00 0.00 0.00 0.00 0.00 0.00 0.00 0.00 0.00 0.00 0.00 0.00 0.00 0.00 0.00 0.00 0.00 0.00 0.00 0.00 0.00 0.00 0.00 0.00 0.00 0.00
0.00 0.00 0.00 0.00 0.00 0.00 0.00 0.00 0.00 0.00 0.00 0.00 0.00 0.00 0.00 0.00 0.00 0.00 0.00 0.00 0.00 0.00 0.00 0.00 0.00 0.00 0.00 0.00 0.00 0.00 0.00 0.00 0.00 0.00 0.00 0.00 0.00 0.00 0.00 0.00 0.00 0.00 0.00 0.00 0.00
0.00 0.00 0.00 0.00 0.00 0.00 0.00 0.00 0.00 0.00 0.00 0.00 0.00 0.00 0.00 0.00 0.00 0.00 0.00 0.00 0.00 0.00 0.00 0.00 0.00 0.00 0.00 0.00 0.00 0.00 0.00 0.00 0.00 0.00 0.00 0.00 0.00 0.00 0.00 0.00 0.00 0.00 0.00 0.00 0.00
0.00 0.00 0.00 0.00 0.00 0.00 0.00 0.00 0.00 0.00 0.00 0.00 0.00 0.00 0.00 0.00 0.00 0.00 0.00 0.00 0.00 0.00 0.00 0.00 0.00 0.00 0.00 0.00 0.00 0.00 0.00 0.00 0.00 0.00 0.00 0.00 0.00 0.00 0.00 0.00 0.00 0.00 0.00 0.00 0.00
0.00 0.00 0.00 0.00 0.00 0.00 0.00 0.00 0.00 0.00 0.00 0.00 0.00 0.00 0.00 0.00 0.00 0.00 0.00 0.00 0.00 0.00 0.00 0.00 0.00 0.00 0.00 0.00 0.00 0.00 0.00 0.00 0.00 0.00 0.00 0.00 0.00 0.00 0.00 0.00 0.00 0.00 0.00 0.00 0.00
0.00 0.00 0.00 0.00 0.00 0.00 0.00 0.00 0.00 0.00 0.00 0.00 0.00 0.00 0.00 0.00 0.00 0.00 0.00 0.00 0.00 0.00 0.00 0.00 0.00 0.00 0.00 0.00 0.00 0.00 0.00 0.00 0.00 0.00 0.00 0.00 0.00 0.00 0.00 0.00 0.00 0.00 0.00 0.00 0.00
0.00 0.00 0.00 0.00 0.00 0.00 0.00 0.00 0.00 0.00 0.00 0.00 0.00 0.00 0.00 0.00 0.00 0.00 0.00 0.00 0.00 0.00 0.00 0.00 0.00 0.00 0.00 0.00 0.00 0.00 0.00 0.00 0.00 0.00 0.00 0.00 0.00 0.00 0.00 0.00 0.00 0.00 0.00 0.00 0.00
0.00 0.00 0.00 0.00 0.00 0.00 0.00 0.00 0.00 0.00 0.00 0.00 0.00 0.00 0.00 0.00 0.00 0.00 0.00 0.00 0.00 0.00 0.00 0.00 0.00 0.00 0.00 0.00 0.00 0.00 0.00 0.00 0.00 0.00 0.00 0.00 0.00 0.00 0.00 0.00 0.00 0.00 0.00 0.00 0.00
0.00 0.00 0.00 0.00 0.00 0.00 0.00 0.00 0.00 0.00 0.00 0.00 0.00 0.00 0.00 0.00 0.00 0.00 0.00 0.00 0.00 0.00 0.00 0.00 0.00 0.00 0.00 0.00 0.00 0.00 0.00 0.00 0.00 0.00 0.00 0.00 0.00 0.00 0.00 0.00 0.00 0.00 0.00 0.00 0.00
0.00 0.00 0.00 0.00 0.00 0.00 0.00 0.00 0.00 0.00 0.00 0.00 0.00 0.00 0.00 0.00 0.00 0.00 0.00 0.00 0.00 0.00 0.00 0.00 0.00 0.00 0.00 0.00 0.00 0.00 0.00 0.00 0.00 0.00 0.00 0.00 0.00 0.00 0.00 0.00 0.00 0.00 0.00 0.00 0.00
0.00 0.00 0.00 0.00 0.00 0.00 0.00 0.00 0.00 0.00 0.00 0.00 0.00 0.00 0.00 0.00 0.00 0.00 0.00 0.00 0.00 0.00 0.00 0.00 0.00 0.00 0.00 0.00 0.00 0.00 0.00 0.00 0.00 0.00 0.00 0.00 0.00 0.00 0.00 0.00 0.00 0.00 0.00 0.00 0.00
0.00 0.00 0.00 0.00 0.00 0.00 0.00 0.00 0.00 0.00 0.00 0.00 0.00 0.00 0.00 0.00 0.00 0.00 0.00 0.00 0.00 0.00 0.00 0.00 0.00 0.00 0.00 0.00 0.00 0.00 0.00 0.00 0.00 0.00 0.00 0.00 0.00 0.00 0.00 0.00 0.00 0.00 0.00 0.00 0.00
0.00 0.00 0.00 0.00 0.00 0.00 0.00 0.00 0.00 0.00 0.00 0.00 0.00 0.00 0.00 0.00 0.00 0.00 0.00 0.00 0.00 0.00 0.00 0.00 0.00 0.00 0.00 0.00 0.00 0.00 0.00 0.00 0.00 0.00 0.00 0.00 0.00 0.00 0.00 0.00 0.00 0.00 0.00 0.00 0.00
0.00 0.00 0.00 0.00 0.00 0.00 0.00 0.00 0.00 0.00 0.00 0.00 0.00 0.00 0.00 0.00 0.00 0.00 0.00 0.00 0.00 0.00 0.00 0.00 0.00 0.00 0.00 0.00 0.00 0.00 0.00 0.00 0.00 0.00 0.00 0.00 0.00 0.00 0.00 0.00 0.00 0.00 0.00 0.00 0.00
0.00 0.00 0.00 0.00 0.00 0.00 0.00 0.00 0.00 0.00 0.00 0.00 0.00 0.00 0.00 0.00 0.00 0.00 0.00 0.00 0.00 0.00 0.00 0.00 0.00 0.00 0.00 0.00 0.00 0.00 0.00 0.00 0.00 0.00 0.00 0.00 0.00 0.00 0.00 0.00 0.00 0.00 0.00 0.00 0.00
0.00 0.00 0.00 0.00 0.00 0.00 0.00 0.00 0.00 0.00 0.00 0.00 0.00 0.00 0.00 0.00 0.00 0.00 0.00 0.00 0.00 0.00 0.00 0.00 0.00 0.00 0.00 0.00 0.00 0.00 0.00 0.00 0.00 0.00 0.00 0.00 0.00 0.00 0.00 0.00 0.00 0.00 0.00 0.00 0.00
0.00 0.00 0.00 0.00 0.00 0.00 0.00 0.00 0.00 0.00 0.00 0.00 0.00 0.00 0.00 0.00 0.00 0.00 0.00 0.00 0.00 0.00 0.00 0.00 0.00 0.00 0.00 0.00 0.00 0.00 0.00 0.00 0.00 0.00 0.00 0.00 0.00 0.00 0.00 0.00 0.00 0.00 0.00 0.00 0.00
0.00 0.00 0.00 0.00 0.00 0.00 0.00 0.00 0.00 0.00 0.00 0.00 0.00 0.00 0.00 0.00 0.00 0.00 0.00 0.00 0.00 0.00 0.00 0.00 0.00 0.00 0.00 0.00 0.00 0.00 0.00 0.00 0.00 0.00 0.00 0.00 0.00 0.00 0.00 0.00 0.00 0.00 0.00 0.00 0.00
0.00 0.00 0.00 0.00 0.00 0.00 0.00 0.00 0.00 0.00 0.00 0.00 0.00 0.00 0.00 0.00 0.00 0.00 0.00 0.00 0.00 0.00 0.00 0.00 0.00 0.00 0.00 0.00 0.00 0.00 0.00 0.00 0.00 0.00 0.00 0.00 0.00 0.00 0.00 0.00 0.00 0.00 0.00 0.00 0.00
0.00 0.00 0.00 0.00 0.00 0.00 0.00 0.00 0.00 0.00 0.00 0.00 0.00 0.00 0.00 0.00 0.00 0.00 0.00 0.00 0.00 0.00 0.00 0.00 0.00 0.00 0.00 0.00 0.00 0.00 0.00 0.00 0.00 0.00 0.00 0.00 0.00 0.00 0.00 0.00 0.00 0.00 0.00 0.00 0.00
MSLP
1018.77 1018.83 1018.84 1018.60 1018.59 1018.51 1018.43 1018.17 1017.98 1018.07 1017.95 1017.56 1017.56 1017.21 1016.80 1016.52 1015.96 1015.64 1015.20 1014.18 1014.17 1014.14 1014.27 1014.30 1014.35 1014.25 1014.62 1014.83 1015.13 1016.07 1017.75 1017.87 1017.16 1016.30 1015.21 1014.51 1014.49 1013.94 1013.75 1013.84 1013.88 1014.10 1014.55 1014.67 1015.03
1018.62 1018.76 1018.66 1018.51 1018.32 1018.42 1018.24 1018.05 1017.81 1017.82 1017.83 1017.57 1017.32 1017.06 1016.73 1016.58 1016.16 1015.15 1013.75 1013.83 1013.98 1014.08 1014.34 1014.33 1014.44 1014.47 1015.07 1015.37 1015.46 1016.34 1017.65 1017.32 1016.12 1015.56 1015.26 1014.76 1014.67 1014.41 1014.25 1014.13 1014.19 1014.25 1014.53 1014.99 1015.39
1018.35 1018.44 1018.51 1018.30 1018.15 1018.15 1018.14 1017.87 1017.67 1017.57 1017.62 1017.50 1017.26 1016.86 1016.60 1016.52 1016.18 1014.24 1013.21 1013.64 1013.98 1014.18 1014.37 1014.30 1014.43 1014.60 1015.13 1015.48 1015.61 1015.99 1016.49 1016.30 1015.56 1015.10 1014.97 1014.71 1014.51 1014.28 1014.35 1014.15 1013.86 1014.14 1014.41 1015.34 1015.86
1018.04 1018.14 1018.46 1018.10 1017.85 1017.86 1017.89 1017.73 1017.59 1017.37 1017.47 1017.38 1017.16 1016.69 1016.44 1016.43 1015.68 1013.77 1013.54 1013.62 1013.79 1014.11 1014.33 1014.20 1014.37 1014.74 1015.17 1015.45 1015.51 1015.98 1015.54 1015.56 1015.03 1014.74 1014.73 1014.65 1014.29 1014.31 1014.29 1013.32 1013.19 1013.50 1013.96 1015.05 1015.62
1017.89 1018.23 1018.40 1017.83 1017.54 1017.78 1017.60 1017.62 1017.47 1017.29 1017.34 1017.27 1017.02 1016.61 1016.41 1016.11 1014.79 1013.54 1013.71 1013.76 1013.97 1014.14 1014.25 1014.29 1014.49 1014.88 1015.37 1015.46 1015.39 1015.56 1015.18 1015.02 1014.63 1014.58 1014.56 1014.53 1014.26 1014.58 1013.74 1012.81 1013.08 1013.43 1013.83 1014.42 1015.03
1018.12 1018.10 1018.11 1017.36 1017.37 1017.77 1017.46 1017.24 1017.32 1017.20 1017.17 1017.06 1016.79 1016.68 1016.56 1015.47 1013.53 1013.57 1013.82 1014.06 1013.96 1014.05 1014.15 1014.26 1014.43 1014.71 1015.17 1015.33 1015.61 1015.32 1015.27 1014.89 1014.58 1014.05 1014.09 1014.28 1014.25 1014.41 1012.76 1012.61 1012.96 1013.23 1013.61 1013.73 1014.04
1017.66 1017.66 1017.72 1017.13 1017.58 1017.53 1017.27 1016.95 1017.11 1016.99 1016.95 1016.93 1016.78 1016.45 1016.22 1014.61 1013.45 1013.62 1013.88 1013.83 1013.75 1013.84 1014.06 1014.32 1014.44 1014.77 1015.24 1015.27 1015.41 1015.29 1015.53 1014.94 1014.18 1014.10 1013.95 1014.02 1014.40 1013.95 1012.66 1012.96 1013.16 1013.38 1013.04 1013.14 1013.20
1017.25 1017.31 1017.40 1017.16 1017.56 1017.21 1017.12 1016.73 1016.66 1016.74 1016.79 1016.74 1016.58 1016.45 1015.43 1013.77 1013.58 1013.79 1013.82 1013.88 1013.74 1013.71 1014.09 1014.27 1014.47 1014.84 1015.29 1015.30 1015.65 1015.93 1016.03 1015.67 1014.24 1014.12 1014.04 1014.20 1013.91 1013.38 1012.96 1013.24 1013.38 1013.50 1013.20 1012.60 1012.52
1017.16 1017.09 1017.16 1017.15 1017.04 1016.96 1016.82 1016.62 1016.33 1016.41 1016.55 1016.60 1016.62 1016.25 1015.07 1013.78 1013.77 1013.46 1013.66 1013.91 1013.97 1013.88 1014.15 1014.30 1014.78 1015.52 1015.71 1016.09 1016.74 1016.70 1016.61 1016.02 1015.01 1014.21 1014.41 1014.60 1014.00 1013.11 1013.26 1013.39 1013.63 1013.62 1013.40 1013.00 1012.32
1016.75 1016.85 1017.20 1017.00 1016.86 1016.72 1016.56 1016.19 1016.05 1015.98 1016.32 1016.23 1016.34 1016.23 1014.62 1013.77 1013.44 1013.46 1013.66 1013.84 1014.10 1014.24 1014.70 1014.98 1015.55 1016.23 1016.65 1016.98 1017.25 1017.10 1016.92 1016.32 1015.79 1014.73 1014.66 1014.74 1014.02 1013.27 1013.27 1013.36 1013.49 1013.71 1013.69 1013.27 1012.86
1016.68 1016.89 1016.78 1016.55 1016.51 1016.51 1016.31 1016.09 1016.35 1016.35 1016.03 1015.36 1015.19 1014.62 1013.89 1013.57 1013.41 1013.54 1013.63 1013.91 1014.24 1014.72 1015.38 1015.78 1016.41 1016.63 1016.38 1016.59 1016.30 1016.73 1016.70 1016.69 1015.82 1015.11 1015.00 1014.83 1014.42 1013.47 1012.98 1013.25 1013.55 1013.82 1013.72 1013.52 1013.37
1016.52 1016.35 1016.44 1016.54 1016.54 1016.41 1016.34 1016.22 1015.48 1015.49 1015.40 1014.44 1014.65 1014.38 1013.88 1013.59 1013.66 1013.61 1013.64 1014.43 1014.55 1015.23 1015.83 1016.47 1016.38 1015.87 1015.83 1015.96 1016.13 1016.47 1016.68 1016.41 1015.71 1015.29 1015.45 1015.16 1014.54 1013.70 1013.11 1013.46 1013.78 1013.70 1013.98 1013.99 1013.71
1016.32 1016.30 1016.34 1016.33 1016.45 1016.45 1016.18 1015.62 1014.82 1015.18 1015.53 1014.45 1013.75 1013.67 1013.60 1013.67 1013.64 1013.53 1013.86 1014.35 1014.66 1015.36 1015.95 1016.44 1015.52 1015.12 1015.47 1015.64 1015.86 1016.11 1016.42 1016.43 1016.61 1015.95 1015.77 1015.50 1015.13 1014.55 1013.97 1013.80 1013.91 1013.90 1014.01 1014.24 1014.31
1016.20 1016.20 1016.08 1016.42 1017.03 1016.01 1015.69 1014.95 1014.87 1015.38 1015.93 1014.42 1013.61 1013.17 1013.19 1013.44 1013.73 1013.39 1013.57 1014.11 1014.71 1015.21 1015.77 1015.86 1015.00 1015.03 1015.21 1015.44 1015.67 1015.97 1015.89 1016.31 1016.73 1017.01 1017.04 1016.49 1016.26 1015.15 1014.56 1014.31 1014.33 1014.42 1014.63 1014.73 1014.87
1016.08 1016.11 1016.26 1016.33 1016.13 1015.78 1015.20 1014.99 1015.22 1015.71 1016.11 1013.90 1013.56 1013.12 1013.14 1013.62 1013.71 1013.80 1013.84 1013.99 1014.66 1015.22 1015.74 1015.22 1014.96 1014.96 1015.03 1015.13 1015.33 1015.80 1016.01 1016.60 1016.90 1017.43 1017.73 1017.27 1017.05 1015.28 1014.82 1014.63 1014.52 1014.80 1014.96 1015.24 1015.22
1015.80 1015.92 1016.14 1016.06 1015.94 1015.19 1015.03 1015.37 1015.68 1016.67 1015.27 1014.06 1013.65 1013.38 1013.69 1013.81 1014.03 1014.25 1014.17 1014.26 1014.89 1015.22 1015.39 1015.15 1014.72 1014.85 1014.85 1015.06 1015.41 1015.77 1016.42 1017.13 1017.71 1018.07 1018.34 1017.42 1017.01 1015.41 1014.88 1014.40 1014.67 1014.82 1015.39 1015.48 1015.25
1015.45 1015.47 1015.94 1015.28 1015.11 1015.08 1015.23 1016.01 1016.85 1016.66 1014.36 1014.02 1013.63 1013.82 1013.75 1014.10 1014.42 1014.45 1014.64 1014.96 1015.20 1015.59 1015.69 1015.10 1014.87 1014.83 1015.01 1015.35 1015.67 1016.19 1017.15 1018.00 1018.70 1018.91 1018.56 1017.38 1017.04 1015.05 1014.19 1013.83 1014.17 1015.07 1015.45 1015.28 1014.91
1015.16 1015.33 1015.28 1014.97 1014.82 1015.01 1015.82 1016.85 1016.79 1015.09 1014.14 1013.42 1013.37 1013.95 1014.03 1014.01 1014.35 1014.56 1014.82 1015.13 1014.91 1015.28 1015.72 1015.48 1015.19 1015.17 1015.32 1015.46 1015.83 1016.50 1017.39 1018.54 1019.18 1019.56 1018.94 1017.70 1016.71 1014.85 1014.40 1014.18 1014.66 1014.87 1014.90 1014.89 1015.02
1015.19 1015.30 1015.36 1014.68 1014.91 1015.27 1016.60 1017.09 1015.66 1014.65 1013.51 1013.37 1013.62 1014.07 1014.15 1013.97 1014.09 1014.43 1014.74 1014.88 1014.48 1014.63 1015.36 1015.40 1015.36 1015.52 1015.66 1015.62 1016.20 1016.85 1017.61 1018.19 1019.07 1020.04 1019.85 1018.04 1016.55 1015.01 1014.96 1014.90 1015.03 1015.07 1015.12 1015.09 1015.21
1015.30 1015.44 1015.23 1014.77 1014.89 1015.92 1016.98 1016.42 1015.14 1013.83 1013.19 1013.20 1013.49 1013.62 1014.05 1014.00 1014.13 1014.45 1014.54 1014.04 1014.21 1014.18 1014.48 1015.20 1015.71 1015.91 1016.05 1016.08 1016.51 1016.86 1017.61 1018.46 1019.55 1020.55 1020.42 1018.74 1017.34 1015.67 1015.26 1015.39 1015.23 1015.28 1015.38 1015.50 1015.57
1015.43 1015.57 1015.15 1014.99 1015.15 1016.29 1016.79 1016.02 1014.68 1013.41 1013.09 1013.13 1013.15 1013.37 1013.61 1013.83 1014.07 1014.38 1014.23 1014.08 1014.01 1014.39 1014.61 1015.14 1015.92 1016.71 1016.63 1016.61 1016.61 1017.42 1017.66 1018.50 1019.53 1020.37 1020.61 1019.82 1017.70 1015.59 1015.52 1015.42 1015.53 1015.66 1015.63 1015.83 1016.11
1015.37 1015.99 1015.32 1015.22 1016.02 1016.48 1016.42 1015.32 1014.17 1013.50 1013.11 1012.97 1013.01 1013.13 1013.43 1013.57 1014.10 1014.13 1013.94 1013.83 1013.83 1014.17 1014.98 1015.45 1016.29 1016.95 1016.85 1016.48 1016.48 1016.83 1017.24 1018.05 1019.46 1020.36 1020.38 1019.77 1017.17 1015.51 1015.30 1015.37 1015.54 1015.84 1016.05 1016.26 1016.35
1015.62 1015.91 1015.61 1015.59 1016.31 1016.51 1015.82 1014.90 1014.22 1013.65 1013.34 1013.28 1013.09 1013.16 1013.35 1013.64 1014.02 1013.87 1013.84 1014.10 1014.11 1014.42 1015.02 1015.60 1016.67 1017.29 1017.17 1017.19 1016.85 1016.92 1017.16 1017.68 1018.73 1019.38 1019.63 1019.51 1016.83 1015.57 1015.38 1015.30 1015.76 1015.99 1016.32 1016.39 1016.16
1015.91 1016.33 1016.53 1016.43 1016.12 1015.75 1015.62 1014.94 1014.18 1013.40 1013.30 1013.22 1013.19 1013.23 1013.55 1013.74 1013.75 1014.06 1014.23 1014.44 1014.59 1014.90 1015.32 1015.70 1016.97 1017.44 1017.48 1017.24 1017.24 1017.49 1017.26 1017.66 1018.36 1019.21 1019.04 1017.45 1016.45 1015.65 1015.57 1015.56 1015.88 1016.18 1016.26 1016.34 1016.29
1015.70 1015.60 1014.97 1016.00 1016.00 1015.51 1015.12 1014.56 1014.15 1013.76 1013.53 1013.38 1013.40 1013.37 1013.71 1014.12 1014.08 1014.29 1014.51 1015.07 1015.28 1015.53 1016.02 1016.55 1017.54 1017.82 1017.64 1017.55 1017.60 1017.45 1017.32 1017.53 1017.89 1017.94 1018.13 1016.61 1016.41 1015.92 1015.95 1016.03 1016.30 1016.52 1016.50 1016.51 1016.45
1015.44 1015.21 1014.90 1015.02 1014.81 1015.08 1014.96 1014.63 1014.03 1013.53 1013.53 1013.47 1013.58 1013.50 1013.79 1013.90 1014.01 1014.11 1014.39 1015.24 1015.29 1016.28 1016.67 1017.33 1018.00 1018.44 1018.32 1017.82 1017.82 1017.43 1016.63 1016.77 1016.94 1016.92 1016.52 1016.53 1015.98 1015.69 1015.84 1016.02 1016.39 1016.59 1016.72 1016.70 1016.52
1014.91 1014.47 1014.22 1014.40 1014.55 1014.79 1014.40 1013.91 1013.57 1013.46 1013.22 1012.91 1013.24 1013.76 1013.87 1013.77 1013.88 1014.12 1014.33 1014.70 1015.16 1015.92 1017.01 1017.97 1018.53 1019.38 1019.20 1018.79 1018.24 1017.11 1015.29 1015.53 1015.71 1015.67 1015.79 1015.91 1015.71 1015.95 1016.12 1016.27 1016.39 1016.49 1016.50 1016.54 1016.44
Thickness
5684 5685 5686 5691 5693 5697 5700 5705 5709 5709 5712 5716 5718 5723 5727 5730 5734 5737 5732 5746 5748 5750 5750 5748 5746 5745 5741 5736 5738 5724 5684 5677 5691 5698 5710 5721 5715 5728 5732 5726 5728 5731 5728 5732 5727
5680 5681 5683 5687 5692 5693 5698 5702 5707 5708 5709 5713 5717 5721 5725 5726 5729 5731 5750 5748 5747 5747 5743 5739 5733 5736 5723 5725 5726 5708 5680 5688 5708 5716 5710 5716 5713 5718 5719 5716 5717 5723 5726 5723 5721
5677 5679 5680 5684 5689 5691 5694 5699 5703 5707 5707 5710 5714 5719 5724 5724 5720 5732 5752 5748 5744 5743 5741 5740 5737 5732 5719 5719 5719 5711 5695 5704 5712 5718 5716 5715 5712 5719 5715 5708 5717 5719 5724 5715 5711
5675 5676 5674 5682 5688 5688 5692 5695 5699 5704 5704 5707 5711 5717 5722 5721 5699 5739 5745 5746 5745 5742 5737 5734 5729 5720 5713 5710 5719 5707 5714 5714 5717 5722 5719 5714 5719 5714 5713 5723 5732 5728 5727 5715 5710
5671 5670 5670 5680 5686 5684 5689 5692 5695 5700 5701 5703 5709 5715 5718 5710 5713 5740 5740 5740 5739 5737 5730 5726 5719 5714 5705 5709 5714 5708 5716 5720 5720 5716 5715 5717 5710 5710 5714 5730 5729 5726 5724 5717 5713
5664 5666 5668 5681 5682 5679 5685 5691 5692 5696 5698 5701 5706 5710 5708 5698 5736 5736 5735 5733 5733 5731 5726 5724 5718 5718 5708 5707 5705 5712 5711 5711 5715 5719 5716 5713 5709 5711 5725 5730 5726 5725 5721 5719 5718
5665 5667 5668 5679 5675 5677 5682 5689 5688 5693 5696 5697 5701 5708 5702 5707 5733 5733 5731 5730 5732 5728 5720 5721 5721 5713 5707 5703 5709 5712 5698 5703 5716 5717 5715 5715 5700 5702 5723 5723 5718 5716 5719 5720 5719
5665 5667 5668 5674 5670 5676 5679 5685 5689 5690 5693 5695 5698 5702 5695 5727 5729 5728 5728 5724 5729 5729 5720 5720 5719 5710 5704 5708 5696 5693 5691 5680 5709 5712 5712 5711 5685 5705 5718 5716 5713 5711 5711 5717 5719
5662 5665 5666 5668 5670 5673 5676 5680 5687 5688 5689 5692 5694 5694 5689 5721 5715 5726 5724 5715 5718 5721 5717 5716 5708 5694 5695 5682 5667 5675 5667 5677 5686 5706 5703 5698 5690 5702 5710 5707 5703 5703 5702 5709 5716
5662 5664 5661 5664 5668 5671 5674 5680 5683 5688 5687 5689 5690 5683 5701 5702 5715 5719 5720 5716 5709 5707 5699 5696 5683 5673 5669 5662 5649 5663 5664 5670 5667 5693 5694 5686 5685 5700 5704 5702 5703 5700 5696 5700 5706
5657 5658 5662 5666 5668 5670 5673 5676 5673 5672 5681 5682 5687 5691 5701 5709 5716 5710 5714 5708 5704 5695 5675 5681 5667 5657 5668 5671 5676 5672 5667 5659 5666 5684 5684 5679 5678 5693 5697 5696 5692 5694 5692 5694 5697
5655 5660 5661 5662 5664 5668 5670 5667 5675 5679 5668 5689 5688 5691 5701 5705 5695 5702 5711 5690 5688 5671 5674 5663 5654 5673 5678 5677 5674 5666 5660 5659 5671 5684 5678 5672 5675 5685 5695 5690 5688 5688 5686 5685 5686
5652 5656 5658 5660 5662 5664 5665 5670 5681 5681 5662 5678 5692 5691 5693 5698 5689 5693 5698 5689 5680 5669 5665 5652 5671 5684 5676 5675 5669 5665 5661 5660 5661 5667 5671 5668 5670 5670 5682 5686 5685 5682 5683 5679 5676
5649 5652 5656 5655 5653 5662 5662 5675 5678 5676 5638 5664 5679 5690 5695 5692 5684 5699 5697 5689 5679 5667 5663 5659 5677 5675 5673 5669 5668 5655 5670 5668 5662 5653 5644 5659 5638 5659 5673 5676 5678 5671 5666 5668 5667
5644 5647 5650 5651 5655 5655 5665 5670 5672 5664 5618 5672 5676 5695 5691 5682 5684 5685 5693 5686 5669 5668 5668 5663 5673 5671 5669 5668 5671 5658 5667 5660 5660 5648 5641 5647 5632 5649 5661 5665 5670 5667 5664 5661 5660
5641 5644 5645 5649 5651 5658 5663 5663 5662 5625 5619 5660 5671 5671 5671 5677 5678 5678 5679 5683 5676 5668 5665 5663 5679 5674 5669 5670 5668 5665 5656 5644 5637 5632 5625 5642 5639 5641 5647 5655 5657 5657 5653 5652 5652
5638 5642 5641 5648 5648 5655 5656 5647 5618 5608 5665 5657 5661 5665 5666 5663 5667 5667 5663 5658 5652 5648 5650 5665 5665 5668 5668 5660 5660 5652 5636 5619 5628 5617 5624 5636 5632 5643 5661 5659 5654 5646 5643 5644 5647
5634 5636 5640 5644 5649 5650 5643 5624 5612 5638 5648 5668 5666 5659 5654 5662 5661 5660 5655 5650 5658 5658 5643 5645 5646 5656 5660 5658 5652 5647 5635 5612 5620 5607 5612 5626 5620 5644 5648 5647 5645 5644 5642 5642 5642
5626 5629 5632 5639 5640 5641 5622 5603 5620 5634 5660 5656 5658 5649 5649 5660 5661 5659 5651 5651 5660 5657 5644 5640 5649 5655 5654 5656 5651 5642 5628 5630 5614 5601 5593 5610 5625 5646 5645 5640 5639 5638 5638 5636 5636
5616 5619 5622 5630 5634 5625 5608 5612 5628 5649 5658 5656 5640 5646 5640 5648 5652 5648 5646 5664 5662 5664 5663 5652 5639 5648 5646 5648 5642 5638 5632 5616 5597 5594 5593 5598 5601 5620 5638 5630 5637 5637 5631 5627 5629
5607 5607 5615 5621 5623 5607 5599 5609 5631 5650 5653 5648 5643 5647 5646 5643 5642 5641 5651 5660 5660 5656 5657 5650 5638 5635 5637 5630 5628 5619 5616 5612 5600 5585 5583 5579 5597 5626 5627 5631 5628 5623 5622 5620 5617
5596 5593 5607 5611 5596 5590 5599 5615 5635 5640 5645 5645 5646 5646 5645 5646 5637 5637 5647 5654 5659 5653 5643 5644 5625 5620 5624 5633 5632 5626 5619 5610 5591 5593 5578 5576 5592 5632 5625 5624 5619 5615 5612 5611 5608
5586 5586 5596 5599 5584 5590 5605 5620 5626 5631 5632 5633 5637 5640 5644 5639 5633 5639 5643 5648 5651 5648 5637 5636 5616 5605 5616 5620 5624 5623 5621 5616 5598 5588 5586 5577 5596 5625 5621 5624 5615 5611 5607 5601 5602
5575 5573 5577 5582 5585 5596 5603 5610 5615 5628 5629 5630 5633 5638 5634 5632 5636 5634 5633 5637 5640 5637 5634 5632 5611 5608 5601 5614 5612 5609 5614 5610 5601 5581 5588 5600 5616 5623 5620 5614 5611 5607 5602 5598 5596
5564 5574 5586 5572 5582 5594 5598 5608 5607 5613 5620 5623 5626 5627 5623 5616 5622 5621 5624 5623 5627 5625 5623 5617 5604 5601 5605 5606 5603 5604 5603 5597 5593 5597 5590 5614 5605 5613 5609 5605 5603 5597 5593 5591 5587
5562 5570 5576 5580 5588 5588 5588 5595 5604 5612 5611 5614 5615 5620 5615 5616 5618 5621 5618 5614 5619 5612 5611 5603 5597 5597 5598 5602 5596 5595 5602 5597 5597 5600 5602 5603 5603 5610 5605 5602 5593 5587 5580 5577 5575
5555 5566 5574 5577 5579 5575 5582 5597 5600 5605 5611 5616 5614 5610 5611 5614 5619 5622 5620 5616 5616 5609 5600 5591 5584 5577 5579 5585 5584 5588 5606 5602 5601 5600 5601 5596 5601 5598 5595 5590 5584 5580 5571 5568 5563